Regional Weather Roundup
Issued by NWS

Home | Current Version | Previous Version | Text Only | Print | Product List | Glossary On
Versions: 1 2 3 4 5 6 7 8 9 10 11 12 13 14 15 16 17 18 19 20 21 22 23 24 25 26 27 28 29 30 31 32 33 34 35 36 37 38 39 40 41 42 43 44 45 46 47 48 49 50
000
ASUS43 KLMK 311010
RWRKY
KENTUCKY REGIONAL WEATHER ROUNDUP
NATIONAL WEATHER SERVICE LOUISVILLE KY
600 AM EDT FRI JUL 31 2015

NOTE "FAIR" INDICATES FEW OR NO CLOUDS BELOW 12,000 FEET
WITH NO SIGNIFICANT WEATHER AND/OR OBSTRUCTIONS TO VISIBILITY.

KYZ001>023-026-027-061>063-070>075-311100-
WESTERN AND SOUTH CENTRAL KENTUCKY

CITY           SKY/WX    TMP DP  RH WIND       PRES   REMARKS
PADUCAH        CLEAR     66  65  96 SW3       30.08S
HENDERSON      CLEAR    N/A N/A N/A MISG        N/A
OWENSBORO      CLEAR     66  64  93 CALM      30.07R
HOPKINSVILLE   CLEAR     67  64  87 VRB1      30.08R
BOWLING GREEN  CLEAR     66  62  87 CALM      30.08R
GLASGOW        CLEAR    N/A N/A N/A CALM      30.08R
$$

KYZ024-025-028>034-038-045-046-053-311100-
NORTH CENTRAL KENTUCKY

CITY           SKY/WX    TMP DP  RH WIND       PRES   REMARKS
LOUISVILLE/SDF PTCLDY    70  62  76 CALM      30.05S
LOUISVILLE/LOU CLEAR     66  62  87 CALM      30.06S
FORT KNOX      PTCLDY    63  61  93 CALM      30.06R
$$

KYZ035>037-039>044-047>052-055>060-089>105-311100-
NORTHEAST KENTUCKY

CITY           SKY/WX    TMP DP  RH WIND       PRES   REMARKS
LEXINGTON      CLEAR     62  59  90 CALM      30.07S
COVINGTON      CLEAR     66  61  85 CALM      30.05S
FRANKFORT      CLEAR     61  59  93 CALM      30.05S
$$

KYZ054-064>069-076>088-106>120-311100-
SOUTHEAST KENTUCKY

CITY           SKY/WX    TMP DP  RH WIND       PRES   REMARKS
JACKSON        CLEAR     62  58  86 CALM      30.08R
LONDON         CLEAR     62  57  83 CALM      30.08S
SOMERSET       CLEAR     59  59 100 CALM      30.09S
MIDDLESBORO    CLEAR     60  60 100 CALM      30.09S
MONTICELLO     MOSUNNY   57  57 100 CALM      30.11S FOG
$$




USA.gov is the U.S. government's official web portal to all federal, state and local government web resources and services.